VPG9015 LIRN-LIBD

Flight info

Callsign VPG9015
Flight time 0h 52m
Altitude 18000
Route GALTI DCT LUNAR/N0190F180 M742 BUMOK
Aircraft TBM8/L-SDFGRWY/S

Departure

Time 2026-05-06 20:10
Airport Naples International Airport (LIRN)

Arrival

Time 2026-05-06 21:02
Airport Bari Karol Wojtyła International Airport (LIBD)
Time Latitude Longitude Altitude Speed Heading
2026-05-06 19:53 40.87800 14.27838 295 ft 0 kts 262°
2026-05-06 20:02 40.87807 14.27831 295 ft 2 kts 21°
2026-05-06 20:02 40.87804 14.27880 297 ft 5 kts 86°
2026-05-06 20:02 40.87844 14.27936 294 ft 16 kts 45°
2026-05-06 20:03 40.87900 14.28024 292 ft 9 kts 51°
2026-05-06 20:03 40.87945 14.28097 288 ft 13 kts 48°
2026-05-06 20:03 40.87969 14.28147 287 ft 6 kts 127°
2026-05-06 20:03 40.87957 14.28218 286 ft 14 kts 96°
2026-05-06 20:04 40.87943 14.28352 284 ft 14 kts 94°
2026-05-06 20:04 40.87944 14.28464 282 ft 11 kts 55°
2026-05-06 20:04 40.88015 14.28551 279 ft 17 kts 53°
2026-05-06 20:04 40.88093 14.28687 276 ft 16 kts 53°
2026-05-06 20:05 40.88159 14.28806 273 ft 18 kts 51°
2026-05-06 20:05 40.88253 14.28967 269 ft 22 kts 51°
2026-05-06 20:05 40.88321 14.29085 266 ft 13 kts 52°
2026-05-06 20:05 40.88396 14.29212 263 ft 22 kts 53°
2026-05-06 20:06 40.88504 14.29400 258 ft 27 kts 52°
2026-05-06 20:06 40.88593 14.29556 254 ft 17 kts 52°
2026-05-06 20:06 40.88674 14.29694 249 ft 24 kts 52°
2026-05-06 20:06 40.88784 14.29885 244 ft 23 kts 52°
2026-05-06 20:07 40.88868 14.30031 239 ft 20 kts 53°
2026-05-06 20:07 40.88953 14.30175 233 ft 9 kts 46°
2026-05-06 20:07 40.88996 14.30169 232 ft 0 kts 327°
2026-05-06 20:07 40.89011 14.30158 234 ft 3 kts 327°
2026-05-06 20:08 40.89034 14.30139 233 ft 16 kts 330°
2026-05-06 20:09 40.89075 14.30099 232 ft 9 kts 283°
2026-05-06 20:09 40.88977 14.29871 240 ft 56 kts 238°
2026-05-06 20:09 40.88689 14.29267 388 ft 91 kts 234°
2026-05-06 20:09 40.88305 14.28514 686 ft 112 kts 234°
2026-05-06 20:10 40.87772 14.27563 896 ft 141 kts 235°
2026-05-06 20:10 40.87238 14.26393 1318 ft 154 kts 239°
2026-05-06 20:10 40.86654 14.25094 1594 ft 173 kts 239°
2026-05-06 20:10 40.85717 14.24018 1811 ft 188 kts 204°
2026-05-06 20:11 40.84394 14.23881 1958 ft 200 kts 166°
2026-05-06 20:11 40.83188 14.24784 2163 ft 202 kts 141°
2026-05-06 20:11 40.82020 14.25828 2439 ft 203 kts 152°
2026-05-06 20:11 40.80734 14.26529 2762 ft 202 kts 162°
2026-05-06 20:12 40.79383 14.26993 3087 ft 200 kts 172°
2026-05-06 20:12 40.78034 14.26623 3357 ft 202 kts 200°
2026-05-06 20:12 40.76735 14.25924 3643 ft 201 kts 201°
2026-05-06 20:12 40.75446 14.25210 3905 ft 199 kts 202°
2026-05-06 20:13 40.74182 14.24489 4010 ft 199 kts 204°
2026-05-06 20:13 40.72910 14.23739 4201 ft 200 kts 204°
2026-05-06 20:13 40.71628 14.22975 4313 ft 206 kts 204°
2026-05-06 20:13 40.70299 14.22196 4317 ft 212 kts 204°
2026-05-06 20:14 40.68936 14.21401 4327 ft 216 kts 204°
2026-05-06 20:14 40.67558 14.20596 4330 ft 217 kts 203°
2026-05-06 20:14 40.66183 14.19761 4334 ft 218 kts 204°
2026-05-06 20:14 40.64803 14.18921 4328 ft 218 kts 201°
2026-05-06 20:15 40.63320 14.18838 4323 ft 218 kts 161°
2026-05-06 20:15 40.62192 14.20091 4518 ft 213 kts 127°
2026-05-06 20:15 40.61443 14.21744 4769 ft 208 kts 122°
2026-05-06 20:15 40.61068 14.23565 5007 ft 212 kts 89°
2026-05-06 20:16 40.61300 14.25482 5221 ft 212 kts 86°
2026-05-06 20:16 40.61380 14.27395 5418 ft 212 kts 92°
2026-05-06 20:16 40.61419 14.29342 5615 ft 214 kts 91°
2026-05-06 20:16 40.61480 14.31303 5810 ft 215 kts 91°
2026-05-06 20:17 40.61555 14.33278 6008 ft 217 kts 91°
2026-05-06 20:17 40.61652 14.35292 6197 ft 220 kts 86°
2026-05-06 20:17 40.62223 14.37163 6109 ft 237 kts 50°
2026-05-06 20:17 40.63816 14.37943 5278 ft 271 kts 347°
2026-05-06 20:18 40.65271 14.36760 5990 ft 227 kts 327°
2026-05-06 20:18 40.66758 14.36333 6575 ft 217 kts
2026-05-06 20:18 40.68089 14.37152 7050 ft 212 kts 41°
2026-05-06 20:18 40.68923 14.38738 7403 ft 208 kts 68°
2026-05-06 20:19 40.69093 14.40544 7850 ft 193 kts 110°
2026-05-06 20:19 40.68449 14.42010 8270 ft 186 kts 134°
2026-05-06 20:19 40.67604 14.43345 8522 ft 193 kts 136°
2026-05-06 20:19 40.66717 14.44710 8791 ft 198 kts 137°
2026-05-06 20:20 40.65802 14.46100 9091 ft 203 kts 137°
2026-05-06 20:20 40.64867 14.47512 9386 ft 205 kts 137°
2026-05-06 20:20 40.63937 14.48964 9709 ft 211 kts 133°
2026-05-06 20:20 40.63203 14.50680 10032 ft 220 kts 117°
2026-05-06 20:21 40.62815 14.52611 10318 ft 211 kts 106°
2026-05-06 20:21 40.62678 14.54522 10556 ft 217 kts 98°
2026-05-06 20:21 40.62685 14.56540 10837 ft 224 kts 94°
2026-05-06 20:21 40.62739 14.58611 11098 ft 229 kts 93°
2026-05-06 20:22 40.62819 14.60724 11348 ft 233 kts 92°
2026-05-06 20:22 40.62897 14.62865 11606 ft 236 kts 92°
2026-05-06 20:22 40.62986 14.65034 11859 ft 238 kts 92°
2026-05-06 20:22 40.63079 14.67225 12113 ft 240 kts 92°
2026-05-06 20:23 40.63174 14.69431 12369 ft 243 kts 92°
2026-05-06 20:23 40.63270 14.71662 12624 ft 245 kts 91°
2026-05-06 20:23 40.63366 14.73905 12881 ft 246 kts 91°
2026-05-06 20:23 40.63461 14.76164 13140 ft 248 kts 91°
2026-05-06 20:24 40.63556 14.78408 13400 ft 249 kts 91°
2026-05-06 20:24 40.63652 14.80700 13665 ft 251 kts 91°
2026-05-06 20:24 40.63749 14.83003 13924 ft 253 kts 91°
2026-05-06 20:24 40.63844 14.85327 14163 ft 254 kts 91°
2026-05-06 20:25 40.63940 14.87652 14401 ft 255 kts 91°
2026-05-06 20:25 40.64034 14.89989 14644 ft 256 kts 91°
2026-05-06 20:25 40.64176 14.92331 14890 ft 258 kts 88°
2026-05-06 20:25 40.64415 14.94682 15122 ft 260 kts 86°
2026-05-06 20:26 40.64681 14.97040 15372 ft 261 kts 86°
2026-05-06 20:26 40.64946 14.99412 15618 ft 262 kts 86°
2026-05-06 20:26 40.65203 15.01791 15833 ft 263 kts 86°
2026-05-06 20:26 40.65455 15.04179 16097 ft 264 kts 86°
2026-05-06 20:27 40.65698 15.06576 16367 ft 264 kts 87°
2026-05-06 20:27 40.65940 15.08984 16619 ft 265 kts 87°
2026-05-06 20:27 40.66177 15.11368 16823 ft 266 kts 87°
2026-05-06 20:27 40.66412 15.13818 17086 ft 267 kts 87°
2026-05-06 20:28 40.66648 15.16243 17356 ft 267 kts 87°
2026-05-06 20:28 40.66887 15.18667 17624 ft 267 kts 87°
2026-05-06 20:28 40.67125 15.21095 17879 ft 267 kts 86°
2026-05-06 20:28 40.67360 15.23515 18009 ft 274 kts 86°
2026-05-06 20:29 40.67601 15.26045 18031 ft 283 kts 87°
2026-05-06 20:29 40.67832 15.28609 18046 ft 282 kts 88°
2026-05-06 20:29 40.68073 15.31197 18044 ft 285 kts 86°
2026-05-06 20:29 40.68324 15.33800 18066 ft 288 kts 86°
2026-05-06 20:30 40.68575 15.36431 18053 ft 290 kts 86°
2026-05-06 20:30 40.69087 15.41729 18042 ft 292 kts 86°
2026-05-06 20:30 40.69344 15.44391 18035 ft 293 kts 86°
2026-05-06 20:31 40.69595 15.47052 18037 ft 293 kts 86°
2026-05-06 20:31 40.69843 15.49715 18030 ft 293 kts 86°
2026-05-06 20:31 40.70089 15.52348 18024 ft 293 kts 86°
2026-05-06 20:31 40.70337 15.55011 18026 ft 293 kts 86°
2026-05-06 20:32 40.70585 15.57679 18032 ft 293 kts 86°
2026-05-06 20:32 40.70834 15.60342 18038 ft 293 kts 86°
2026-05-06 20:32 40.71081 15.63009 18052 ft 293 kts 87°
2026-05-06 20:32 40.71392 15.65674 18026 ft 296 kts 79°
2026-05-06 20:33 40.72151 15.68203 18026 ft 299 kts 61°
2026-05-06 20:33 40.73337 15.70458 18032 ft 299 kts 53°
2026-05-06 20:33 40.74568 15.72670 18042 ft 299 kts 54°
2026-05-06 20:33 40.75779 15.74916 18040 ft 300 kts 55°
2026-05-06 20:34 40.76988 15.77154 18024 ft 299 kts 54°
2026-05-06 20:34 40.78204 15.79384 18015 ft 299 kts 54°
2026-05-06 20:34 40.79007 15.80860 18025 ft 299 kts 54°
2026-05-06 20:34 40.80215 15.83095 18043 ft 300 kts 56°
2026-05-06 20:35 40.81419 15.85348 18049 ft 300 kts 54°
2026-05-06 20:35 40.82643 15.87580 18021 ft 300 kts 54°
2026-05-06 20:35 40.83861 15.89814 18023 ft 300 kts 54°
2026-05-06 20:35 40.85076 15.92050 18023 ft 300 kts 54°
2026-05-06 20:36 40.86292 15.94298 18030 ft 300 kts 54°
2026-05-06 20:36 40.87507 15.96540 18032 ft 300 kts 54°
2026-05-06 20:36 40.88705 15.98756 18021 ft 300 kts 55°
2026-05-06 20:36 40.89913 16.00998 18007 ft 299 kts 55°
2026-05-06 20:37 40.91120 16.03235 18010 ft 299 kts 55°
2026-05-06 20:37 40.92328 16.05474 18009 ft 299 kts 55°
2026-05-06 20:37 40.93534 16.07711 18009 ft 299 kts 55°
2026-05-06 20:37 40.94683 16.09998 18005 ft 298 kts 62°
2026-05-06 20:38 40.95393 16.12538 17992 ft 292 kts 87°
2026-05-06 20:38 40.95315 16.15171 17998 ft 286 kts 103°
2026-05-06 20:38 40.95101 16.17788 18009 ft 286 kts 101°
2026-05-06 20:38 40.94939 16.20414 18011 ft 287 kts 99°
2026-05-06 20:39 40.94809 16.23057 18000 ft 288 kts 99°
2026-05-06 20:39 40.94700 16.25701 17999 ft 288 kts 98°
2026-05-06 20:39 40.94600 16.28344 18004 ft 288 kts 98°
2026-05-06 20:39 40.94506 16.30990 18003 ft 288 kts 98°
2026-05-06 20:40 40.94412 16.33641 17999 ft 288 kts 98°
2026-05-06 20:40 40.94317 16.36292 17986 ft 288 kts 98°
2026-05-06 20:40 40.94224 16.38936 17985 ft 287 kts 98°
2026-05-06 20:40 40.94131 16.41575 17984 ft 287 kts 98°
2026-05-06 20:41 40.94038 16.44172 17984 ft 286 kts 98°
2026-05-06 20:41 40.93943 16.46801 17982 ft 285 kts 98°
2026-05-06 20:41 40.93849 16.49414 17986 ft 285 kts 98°
2026-05-06 20:41 40.93868 16.52050 17988 ft 289 kts 89°
2026-05-06 20:42 40.94254 16.54672 17994 ft 293 kts 77°
2026-05-06 20:42 40.94940 16.57220 17991 ft 294 kts 71°
2026-05-06 20:42 40.95670 16.59753 17984 ft 294 kts 71°
2026-05-06 20:42 40.96397 16.62282 17982 ft 294 kts 71°
2026-05-06 20:43 40.97124 16.64817 17986 ft 294 kts 72°
2026-05-06 20:43 40.97847 16.67352 18000 ft 295 kts 71°
2026-05-06 20:43 40.98573 16.69897 18016 ft 295 kts 71°
2026-05-06 20:43 40.99293 16.72422 18010 ft 294 kts 70°
2026-05-06 20:44 41.00015 16.74969 18011 ft 294 kts 70°
2026-05-06 20:44 41.00724 16.77469 18014 ft 294 kts 70°
2026-05-06 20:44 41.01440 16.80003 17907 ft 289 kts 71°
2026-05-06 20:44 41.02039 16.82267 17623 ft 236 kts 73°
2026-05-06 20:45 41.02555 16.84162 17228 ft 205 kts 72°
2026-05-06 20:45 41.03041 16.85850 16806 ft 188 kts 71°
2026-05-06 20:45 41.03499 16.87417 16392 ft 177 kts 72°
2026-05-06 20:45 41.03932 16.88908 15977 ft 170 kts 73°
2026-05-06 20:46 41.04343 16.90344 15589 ft 164 kts 73°
2026-05-06 20:46 41.04739 16.91739 15216 ft 160 kts 74°
2026-05-06 20:46 41.05183 16.93223 14882 ft 193 kts 70°
2026-05-06 20:46 41.05725 16.95016 14579 ft 224 kts 72°
2026-05-06 20:47 41.06280 16.97040 14269 ft 243 kts 73°
2026-05-06 20:47 41.06864 16.99202 13958 ft 255 kts 73°
2026-05-06 20:47 41.07476 17.01436 13602 ft 261 kts 73°
2026-05-06 20:47 41.08108 17.03713 13223 ft 265 kts 73°
2026-05-06 20:48 41.08750 17.06006 12828 ft 266 kts 71°
2026-05-06 20:48 41.09400 17.08308 12446 ft 266 kts 72°
2026-05-06 20:48 41.10041 17.10598 12068 ft 263 kts 72°
2026-05-06 20:48 41.10674 17.12854 11693 ft 260 kts 72°
2026-05-06 20:49 41.11302 17.15087 11323 ft 257 kts 72°
2026-05-06 20:49 41.11918 17.17293 10954 ft 254 kts 72°
2026-05-06 20:49 41.12525 17.19478 10588 ft 251 kts 72°
2026-05-06 20:49 41.13119 17.21628 10231 ft 246 kts 73°
2026-05-06 20:50 41.13704 17.23739 9870 ft 241 kts 73°
2026-05-06 20:50 41.14281 17.25816 9466 ft 238 kts 73°
2026-05-06 20:50 41.14843 17.27839 9082 ft 235 kts 72°
2026-05-06 20:50 41.15447 17.29851 8696 ft 234 kts 67°
2026-05-06 20:51 41.16384 17.31609 8312 ft 235 kts 44°
2026-05-06 20:51 41.17783 17.32711 7934 ft 234 kts 20°
2026-05-06 20:51 41.19359 17.33192 7564 ft 232 kts
2026-05-06 20:51 41.20956 17.33132 7196 ft 229 kts 349°
2026-05-06 20:52 41.22463 17.32440 6834 ft 237 kts 333°
2026-05-06 20:52 41.23987 17.31482 6481 ft 246 kts 328°
2026-05-06 20:52 41.25285 17.30073 6104 ft 236 kts 308°
2026-05-06 20:52 41.26109 17.28267 5745 ft 223 kts 288°
2026-05-06 20:53 41.26422 17.26315 5493 ft 211 kts 270°
2026-05-06 20:53 41.26293 17.24417 5244 ft 204 kts 254°
2026-05-06 20:53 41.25842 17.22681 4999 ft 200 kts 247°
2026-05-06 20:53 41.25358 17.20954 4758 ft 199 kts 247°
2026-05-06 20:54 41.24884 17.19241 4505 ft 197 kts 247°
2026-05-06 20:54 41.24411 17.17537 4248 ft 196 kts 247°
2026-05-06 20:54 41.23937 17.15845 4004 ft 195 kts 247°
2026-05-06 20:54 41.23466 17.14162 3760 ft 194 kts 247°
2026-05-06 20:55 41.22997 17.12487 3510 ft 193 kts 247°
2026-05-06 20:55 41.22532 17.10814 3265 ft 193 kts 246°
2026-05-06 20:55 41.22067 17.09151 3000 ft 191 kts 246°
2026-05-06 20:55 41.21617 17.07489 2755 ft 191 kts 249°
2026-05-06 20:56 41.21296 17.05776 2553 ft 190 kts 256°
2026-05-06 20:56 41.21055 17.04075 2527 ft 189 kts 255°
2026-05-06 20:56 41.20765 17.02348 2524 ft 194 kts 255°
2026-05-06 20:56 41.20480 17.00581 2508 ft 197 kts 256°
2026-05-06 20:57 41.20186 16.98797 2499 ft 198 kts 253°
2026-05-06 20:57 41.19767 16.97068 2497 ft 196 kts 249°
2026-05-06 20:57 41.19233 16.95398 2445 ft 197 kts 243°
2026-05-06 20:57 41.18647 16.93788 2242 ft 189 kts 247°
2026-05-06 20:58 41.18284 16.92196 2177 ft 175 kts 251°
2026-05-06 20:58 41.17955 16.90662 1986 ft 168 kts 249°
2026-05-06 20:58 41.17590 16.89251 1731 ft 159 kts 244°
2026-05-06 20:58 41.17164 16.87929 1542 ft 154 kts 242°
2026-05-06 20:59 41.16779 16.86636 1488 ft 149 kts 247°
2026-05-06 20:59 41.16486 16.85406 1303 ft 126 kts 246°
2026-05-06 20:59 41.16219 16.84412 1159 ft 105 kts 242°
2026-05-06 20:59 41.15946 16.83541 994 ft 106 kts 241°
2026-05-06 21:00 41.15670 16.82574 931 ft 110 kts 245°
2026-05-06 21:00 41.15394 16.81668 781 ft 104 kts 243°
2026-05-06 21:00 41.15160 16.80770 744 ft 99 kts 244°
2026-05-06 21:00 41.14973 16.80018 651 ft 78 kts 242°
2026-05-06 21:01 41.14759 16.79319 566 ft 90 kts 239°
2026-05-06 21:01 41.14529 16.78486 458 ft 101 kts 245°
2026-05-06 21:01 41.14287 16.77625 275 ft 98 kts 243°
2026-05-06 21:01 41.14061 16.76814 157 ft 84 kts 243°
2026-05-06 21:02 41.13898 16.76236 144 ft 47 kts 251°
2026-05-06 21:02 41.13823 16.75959 147 ft 24 kts 249°
2026-05-06 21:02 41.13752 16.75748 147 ft 21 kts 211°
2026-05-06 21:02 41.13642 16.75656 150 ft 7 kts 220°
2026-05-06 21:03 41.13588 16.75648 152 ft 9 kts 148°
2026-05-06 21:03 41.13573 16.75742 153 ft 18 kts 67°
2026-05-06 21:03 41.13625 16.75918 153 ft 13 kts 69°
2026-05-06 21:03 41.13637 16.76003 153 ft 10 kts 104°
2026-05-06 21:04 41.13580 16.76085 153 ft 7 kts 148°
2026-05-06 21:04 41.13529 16.76035 153 ft 10 kts 250°
2026-05-06 21:04 41.13552 16.75988 153 ft 6 kts 340°
2026-05-06 21:04 41.13572 16.75991 153 ft 3 kts 68°
2026-05-06 21:05 41.13575 16.75995 153 ft 0 kts 20°